sat.trackr.live / text

‹ back to catalog

STARLINK-36106

NORAD 67018 · 2025-293R

PAYLOAD ACTIVE UNKNOWN

§ Identity

Operator
Country
US
Launch date
2025-12-10
Launch site
AFWTR
Launch vehicle
Mass (kg)
RCS (m²)

Purposes: comms

External: N2YO · Heavens-Above · Gunter

§ Orbital elements

Epoch: 2026-05-24T16:19:38.385696Z

Period
96.11 min
Inclination
70.0009°
Eccentricity
0.0003271
Mean motion
14.98338205 rev/d
Perigee alt
569.8 km
Apogee alt
574.3 km
Semi-major
6,950.2 km
B*
3.3970e-4
RAAN
262.7268°
Arg perigee
269.6277°
Mean anomaly
90.4508°
Rev number
2,627

§ Raw data

STARLINK-361061 67018U 25293R   26144.68030539  .00003963  00000+0  33970-3 0  99992 67018  70.0009 262.7268 0003271 269.6277  90.4508 14.98338205 26271

JSON: /api/v1/satellites/67018 · /tle

For live sub-satellite position, see the globe view (requires WebGL).

§ Visibility from observer

Set your observer location to see the next 7 days of passes ≥ 10°. The values pass through the URL so the page stays shareable.

No JS? Fill the form by hand. The geolocation button needs JavaScript.